[[{"header":{"parameterUnit":"m.s-1","parameterCategory":1,"la1":30.2991,"la2":30.254,"lo1":-89.0895,"lo2":-89.0444,"dy":0.0017,"dx":0.0017,"nx":28,"ny":28,"refTime":"2025-09-01T03:00:00:Z","depth":0,"parameterNumber":2,"parameterNumberName":"U-component_of_WINDS"},"data":[0,0,0,0,0,0,0,0,0,0,0,0,0,0,0,0,0,0,0,0,0,0,0,0,0,0,0,0,0,0,0,0,0,0,0,0,0,0,0,0,0,0,0,0,0,0,0,0,0,0,0,0,0,0,0,0,0,0,-3.5646,-3.5647,0,-3.5739,-3.574,-3.5741,-3.5587,-3.5582,-3.5577,-3.5572,-3.5673,-3.5681,-3.5688,0,0,0,0,0,0,0,0,0,0,0,0,0,-3.5338,-3.5345,-3.5645,-3.5647,-3.5648,-3.5739,-3.574,-3.5741,-3.5588,-3.5582,-3.5575,-3.5569,-3.5671,-3.568,-3.5689,0,0,0,0,0,0,0,0,0,0,0,0,0,-3.5456,-3.5347,-3.5645,-3.5582,-3.5577,-3.5739,-3.574,-3.5742,-3.559,-3.5582,-3.5574,-3.5566,-3.5668,-3.5679,-3.569,-3.5919,0,0,-3.5725,-3.573,0,0,0,0,0,0,0,0,-3.545,-3.5468,-3.559,-3.5587,-3.5582,-3.5643,-3.5669,-3.5801,-3.5591,-3.5585,-3.5572,-3.5562,-3.567,-3.5681,-3.5716,-3.5924,-3.5928,-3.5726,-3.5733,-3.5738,-3.5741,0,0,0,0,0,0,0,-3.5442,-3.5463,-3.5683,-3.5592,-3.5587,-3.5551,-3.5559,-3.5693,-3.5671,-3.5585,-3.5574,-3.5587,-3.5666,-3.5705,-3.5717,-3.593,-3.5726,-3.5736,-3.5743,-3.5747,-3.633,-3.6339,0,0,0,0,0,0,-3.5441,-3.5457,-3.568,-3.5685,-3.5495,-3.5563,-3.5571,-3.5632,-3.5669,-3.5667,-3.5594,-3.5579,-3.569,-3.5704,-3.572,-3.5991,-3.5738,-3.5749,-3.5755,-3.6322,-3.6332,-3.6342,0,0,0,0,0,0,-3.5435,-3.5462,-3.5676,-3.5568,-3.5593,-3.5576,-3.5645,-3.5638,-3.5676,-3.5675,-3.5671,-3.5637,-3.5684,-3.5704,-3.587,-3.5993,-3.5754,-3.5764,-3.6312,-3.6325,-3.6337,-3.6536,0,0,0,0,0,0,-3.5426,-3.5461,-3.5547,-3.5571,-3.5599,-3.5824,-3.5653,-3.5645,-3.5696,-3.5678,-3.5715,-3.5714,-3.5679,-3.5854,-3.5882,-3.6004,-3.5773,-3.6301,-3.6318,-3.6333,-3.6518,-3.6554,-3.6584,0,0,0,0,0,-3.5416,-3.56,-3.5552,-3.558,-3.5706,-3.5831,-3.5847,-3.5802,-3.5706,-3.5793,-3.5792,-3.5713,-3.5974,-3.5873,-3.5902,-3.603,-3.6293,-3.6313,-3.6332,-3.6503,-3.6547,-3.6583,0,0,0,0,0,0,-3.5593,-3.5602,-3.5549,-3.5746,-3.5789,-3.5805,-3.5914,-3.5849,-3.5922,-3.5903,-3.5844,-3.5854,-3.6033,-3.6047,-3.5934,-3.6253,-3.6118,-3.6144,-3.6238,-3.6279,-3.6312,-3.6306,-3.5782,0,0,0,0,0,-3.5654,-3.5754,-3.5757,-3.5931,-3.5955,-3.5931,-3.5984,-3.5945,-3.5988,-3.6006,-3.6017,-3.6063,-3.6155,-3.6217,-3.6302,-3.6518,-3.6525,-3.6621,-3.6654,-3.6681,-3.6705,-3.6821,-3.6864,-3.6405,-3.6405,-3.6405,0,0,-3.5783,-3.58,-3.5867,-3.5967,-3.5995,-3.6101,-3.5947,-3.6066,-3.6144,-3.6024,-3.6182,-3.6192,-3.6239,-3.6432,-3.6517,-3.6449,-3.6833,-3.6706,-3.6727,-3.6737,-3.6846,-3.6889,-3.6928,-3.6419,-3.6416,-3.6414,0,0,-3.6073,-3.6095,-3.6242,-3.6274,-3.6318,-3.63,-3.6336,-3.6362,-3.6363,-3.652,-3.6432,-3.6525,-3.6685,-3.6722,-3.6763,-3.7065,-3.6995,-3.7094,-3.7268,-3.7382,-3.7418,-3.745,-3.7559,-3.7599,-3.7118,-3.7118,-3.7119,0,-3.6228,-3.6383,-3.6327,-3.6452,-3.6498,-3.6391,-3.6541,-3.6575,-3.6646,-3.6681,-3.6603,-3.6802,-3.6826,-3.7026,-3.71,-3.7135,-3.7175,-3.7091,-3.7417,-3.7448,-3.7477,-3.7581,-3.7622,-3.713,-3.7129,-3.7128,-3.7126,0,-3.6572,-3.6681,-3.6795,-3.6864,-3.6923,-3.706,-3.7026,-3.7093,-3.7049,-3.704,-3.7201,-3.7226,-3.7315,-3.7358,-3.7317,-3.7553,-3.751,-3.7426,-3.7289,-3.7534,-3.763,-3.767,-3.7147,-3.7143,-3.7139,-3.7136,0,0,-3.6978,-3.7013,-3.7056,-3.7086,-3.7126,-3.721,-3.7342,-3.7426,-3.7486,-3.7538,-3.7648,-3.7785,-3.7707,-3.7753,-3.7714,-3.7814,-3.8053,-3.7717,-3.7717,-3.778,-3.8317,-3.8382,-3.8429,-3.8006,-3.8013,-3.8019,-3.8313,0,-3.7267,-3.7493,-3.7447,-3.7669,-3.7769,-3.7669,-3.7783,-3.7822,-3.7817,-3.7902,-3.7897,-3.7995,-3.7884,-3.7911,-3.8005,-3.8005,-3.8161,-3.7982,-3.811,-3.8116,-3.8104,-3.8479,-3.8548,-3.8825,-3.8351,-3.8357,-3.8362,0,-3.7635,-3.7699,-3.7932,-3.7955,-3.7996,-3.81,-3.8173,-3.8255,-3.8297,-3.8286,-3.8337,-3.8279,-3.8411,-3.827,-3.8453,-3.8333,-3.8382,-3.839,-3.8399,-3.8412,-3.8255,-3.8503,-3.8912,-3.8954,-3.842,-3.8416,-3.8411,0,-3.7911,-3.8055,-3.8212,-3.8241,-3.8272,-3.8348,-3.8365,-3.8398,-3.8451,-3.8516,-3.855,-3.863,-3.8675,-3.8738,-3.8704,-3.8604,-3.8894,-3.875,-3.889,-3.8892,-3.8958,-3.8955,-3.9383,-3.8987,-3.8986,-3.8985,-3.8984,0,-3.824,-3.8387,-3.8336,-3.8434,-3.8595,-3.8539,-3.8701,-3.8706,-3.8736,-3.8834,-3.8751,-3.8845,-3.8793,-3.8883,-3.8857,-3.9013,-3.9033,-3.903,-3.9022,-3.9039,-3.904,-3.9072,-3.9053,-3.8996,-3.8994,-3.8992,-3.899,0,-3.8576,-3.8547,-3.8713,-3.8728,-3.8735,-3.8854,-3.8867,-3.8959,-3.8946,-3.9071,-3.9097,-3.9079,-3.918,-3.9151,-3.9262,-3.9244,-3.9443,-3.9409,-3.9429,-3.9421,-3.9564,-3.9552,-4.003,-4.009,-3.9654,-3.9658,-3.9661,0,-3.8789,-3.8899,-3.8925,-3.8983,-3.9006,-3.9101,-3.9155,-3.9104,-3.9164,-3.9219,-3.9304,-3.9398,-3.947,-3.9638,-3.9636,-3.972,-3.9689,-3.985,-3.9701,-3.9715,-3.9694,-3.9688,-3.97,-3.9881,-3.9886,-3.989,-3.9893,0,-3.917,-3.9151,-3.923,-3.9306,-3.9371,-3.9428,-3.9478,-3.9531,-3.9484,-3.9555,-3.9657,-3.9713,-3.9825,-3.992,-3.9997,-4.0015,-3.9949,-3.994,-3.9977,-3.9997,-4.0004,-4.0004,-3.9512,-3.993,-3.9926,-3.9924,-3.9922,-3.992,-3.9452,-3.9546,-3.9578,-3.967,-3.9701,-3.975,-3.9836,-3.9834,-3.9917,-4.0003,-3.9968,-4.0086,-4.0124,-4.022,-4.0248,-4.034,-4.0279,-4.0333,-4.0347,-4.0361,-4.038,-3.9988,-4.0354,-4.0353,-4.0352,-4.0351,-4.035,0,-3.9831,-3.9847,-3.9931,-4.0002,-4.0075,-4.0002,-4.0053,-4.0119,-4.0223,-4.0263,-4.0335,-4.0453,-4.0544,-4.0548,-4.0634,-4.0707,-4.0678,-4.0731,-4.0727,-4.0732,-4.0429,-4.0389,-4.0753,-4.0753,-4.0753,-4.0753,-4.0753,-4.0753,-4.0037,-4.0191,-4.0175,-4.0344,-4.0359,-4.0472,-4.0508,-4.0552,-4.0584,-4.0718,-4.0793,-4.0793,-4.082,-4.0906,-4.0988,-4.0986,-4.1023,-4.1088,-4.1076,-4.0794,-4.0754,-4.0716,-4.0678,-4.1096,-4.1097,-4.1371,-4.1374,-4.1376]},{"header":{"parameterUnit":"m.s-1","parameterCategory":1,"la1":30.2991,"la2":30.254,"lo1":-89.0895,"lo2":-89.0444,"dy":0.0017,"dx":0.0017,"nx":28,"ny":28,"refTime":"2025-09-01T03:00:00:Z","depth":0,"parameterNumber":3,"parameterNumberName":"V-component_of_WINDS"},"data":[0,0,0,0,0,0,0,0,0,0,0,0,0,0,0,0,0,0,0,0,0,0,0,0,0,0,0,0,0,0,0,0,0,0,0,0,0,0,0,0,0,0,0,0,0,0,0,0,0,0,0,0,0,0,0,0,0,0,-2.4,-2.4,0,-2.3997,-2.3997,-2.3997,-2.3979,-2.3979,-2.3978,-2.3978,-2.3974,-2.3974,-2.3974,0,0,0,0,0,0,0,0,0,0,0,0,0,-2.3987,-2.3988,-2.4,-2.4,-2.4,-2.3997,-2.3997,-2.3997,-2.3979,-2.3979,-2.3978,-2.3978,-2.3973,-2.3974,-2.3974,0,0,0,0,0,0,0,0,0,0,0,0,0,-2.399,-2.3988,-2.4,-2.3991,-2.399,-2.3997,-2.3997,-2.3997,-2.3979,-2.3979,-2.3978,-2.3977,-2.3973,-2.3974,-2.3974,-2.399,0,0,-2.3975,-2.3976,0,0,0,0,0,0,0,0,-2.3989,-2.399,-2.3992,-2.3991,-2.399,-2.3988,-2.3991,-2.3995,-2.3979,-2.3983,-2.3978,-2.3977,-2.3979,-2.3979,-2.398,-2.399,-2.399,-2.3976,-2.3976,-2.3976,-2.3976,0,0,0,0,0,0,0,-2.3989,-2.399,-2.3999,-2.3992,-2.3991,-2.3986,-2.3985,-2.3992,-2.3985,-2.3983,-2.3982,-2.3982,-2.3978,-2.3979,-2.3979,-2.3989,-2.3976,-2.3976,-2.3976,-2.3976,-2.401,-2.4011,0,0,0,0,0,0,-2.3991,-2.399,-2.3999,-2.3999,-2.3988,-2.3987,-2.3986,-2.3989,-2.3985,-2.3983,-2.3982,-2.3981,-2.3979,-2.3979,-2.3979,-2.3996,-2.3976,-2.3976,-2.3977,-2.4009,-2.401,-2.4011,0,0,0,0,0,0,-2.3991,-2.3992,-2.3999,-2.3994,-2.3995,-2.3988,-2.3991,-2.399,-2.3991,-2.3984,-2.3982,-2.3985,-2.3978,-2.3978,-2.3987,-2.3995,-2.3977,-2.3977,-2.4009,-2.401,-2.401,-2.403,0,0,0,0,0,0,-2.399,-2.3992,-2.3998,-2.3994,-2.3995,-2.4008,-2.3992,-2.399,-2.3992,-2.399,-2.3986,-2.3985,-2.3978,-2.3986,-2.3987,-2.3995,-2.3977,-2.4008,-2.4009,-2.401,-2.4028,-2.4031,-2.4034,0,0,0,0,0,-2.399,-2.4004,-2.3999,-2.4,-2.4003,-2.4008,-2.4009,-2.4001,-2.3992,-2.3998,-2.3994,-2.3985,-2.3994,-2.3987,-2.3988,-2.3997,-2.4007,-2.4009,-2.401,-2.4027,-2.4031,-2.4034,0,0,0,0,0,0,-2.4009,-2.4003,-2.3998,-2.4011,-2.401,-2.4005,-2.4013,-2.4005,-2.4007,-2.4005,-2.3995,-2.3994,-2.4003,-2.4001,-2.3993,-2.4011,-2.3999,-2.4001,-2.4012,-2.4015,-2.4018,-2.4018,-2.3978,0,0,0,0,0,-2.4015,-2.4021,-2.4015,-2.4027,-2.4027,-2.402,-2.4022,-2.4016,-2.4015,-2.4014,-2.401,-2.4009,-2.4011,-2.4013,-2.4015,-2.4028,-2.4026,-2.4034,-2.4037,-2.4039,-2.404,-2.4045,-2.4048,-2.4016,-2.4015,-2.4015,0,0,-2.4027,-2.4025,-2.4029,-2.4031,-2.403,-2.4035,-2.402,-2.4026,-2.4029,-2.4015,-2.4022,-2.402,-2.4017,-2.4027,-2.4032,-2.4026,-2.4049,-2.4041,-2.4043,-2.4043,-2.4047,-2.405,-2.4053,-2.4016,-2.4016,-2.4016,0,0,-2.4051,-2.4051,-2.406,-2.4059,-2.4057,-2.4052,-2.4054,-2.405,-2.4048,-2.4055,-2.4044,-2.4047,-2.4052,-2.405,-2.405,-2.4072,-2.4063,-2.4073,-2.4087,-2.4091,-2.4094,-2.4096,-2.4102,-2.4105,-2.4074,-2.4074,-2.4074,0,-2.4066,-2.4074,-2.4066,-2.4072,-2.4073,-2.406,-2.4069,-2.4068,-2.4067,-2.4067,-2.4061,-2.4065,-2.4063,-2.4072,-2.4077,-2.4078,-2.4078,-2.4073,-2.4094,-2.4096,-2.4098,-2.4104,-2.4107,-2.4075,-2.4075,-2.4075,-2.4075,0,-2.4092,-2.4097,-2.4104,-2.4103,-2.4105,-2.4112,-2.4104,-2.4107,-2.41,-2.4095,-2.4102,-2.4099,-2.4099,-2.4101,-2.4095,-2.4108,-2.4104,-2.4096,-2.4084,-2.4103,-2.4108,-2.411,-2.4077,-2.4077,-2.4076,-2.4076,0,0,-2.4128,-2.4122,-2.4125,-2.4123,-2.412,-2.4123,-2.4129,-2.413,-2.4131,-2.413,-2.4134,-2.4138,-2.413,-2.413,-2.4123,-2.4128,-2.4143,-2.4119,-2.4119,-2.4122,-2.4155,-2.4161,-2.4163,-2.4137,-2.4138,-2.4138,-2.4155,0,-2.415,-2.4161,-2.4153,-2.4164,-2.4168,-2.4156,-2.4161,-2.4158,-2.4154,-2.4156,-2.415,-2.4153,-2.4143,-2.4142,-2.4146,-2.414,-2.4149,-2.4139,-2.414,-2.414,-2.4139,-2.4166,-2.4172,-2.4188,-2.4157,-2.4158,-2.4158,0,-2.4177,-2.4177,-2.4189,-2.4183,-2.4184,-2.4189,-2.4188,-2.419,-2.4187,-2.4183,-2.4182,-2.4174,-2.4178,-2.4167,-2.4172,-2.4166,-2.4165,-2.4162,-2.4163,-2.4161,-2.4149,-2.4165,-2.4194,-2.4196,-2.4161,-2.4161,-2.4161,0,-2.42,-2.4204,-2.4211,-2.421,-2.4204,-2.4207,-2.4205,-2.4201,-2.4201,-2.42,-2.42,-2.4199,-2.4198,-2.4198,-2.4189,-2.4182,-2.4194,-2.4183,-2.419,-2.419,-2.4192,-2.4192,-2.422,-2.4194,-2.4194,-2.4194,-2.4194,0,-2.4225,-2.4232,-2.4221,-2.4225,-2.4232,-2.4223,-2.423,-2.4226,-2.4223,-2.4225,-2.4214,-2.4217,-2.4206,-2.4206,-2.42,-2.4204,-2.4204,-2.42,-2.4198,-2.42,-2.4201,-2.4199,-2.4197,-2.4195,-2.4195,-2.4195,-2.4194,0,-2.4252,-2.4245,-2.4251,-2.4245,-2.4243,-2.4249,-2.4243,-2.4246,-2.424,-2.4243,-2.4243,-2.4234,-2.4234,-2.4226,-2.4225,-2.422,-2.4226,-2.4223,-2.4227,-2.4226,-2.4233,-2.4232,-2.426,-2.4263,-2.4236,-2.4237,-2.4237,0,-2.4268,-2.4273,-2.4266,-2.4267,-2.4265,-2.4267,-2.4267,-2.4258,-2.4258,-2.4254,-2.4257,-2.4256,-2.4255,-2.4256,-2.4248,-2.4247,-2.4242,-2.4252,-2.4242,-2.4244,-2.4241,-2.424,-2.424,-2.4254,-2.4255,-2.4255,-2.4255,0,-2.4295,-2.4291,-2.4292,-2.4291,-2.4291,-2.429,-2.4288,-2.4289,-2.4278,-2.4279,-2.4279,-2.4278,-2.4276,-2.4275,-2.4272,-2.4268,-2.4259,-2.4258,-2.426,-2.4262,-2.4264,-2.4261,-2.4232,-2.4258,-2.4257,-2.4257,-2.4257,-2.4257,-2.4316,-2.4319,-2.4315,-2.4316,-2.4313,-2.4311,-2.4313,-2.4308,-2.4308,-2.4305,-2.43,-2.43,-2.4295,-2.429,-2.4287,-2.4287,-2.4281,-2.4284,-2.4284,-2.4284,-2.4285,-2.4265,-2.4286,-2.4286,-2.4286,-2.4286,-2.4286,0,-2.4342,-2.4338,-2.4339,-2.4336,-2.4336,-2.4328,-2.4325,-2.4326,-2.4326,-2.4323,-2.4322,-2.4321,-2.4319,-2.4312,-2.4309,-2.431,-2.4306,-2.431,-2.4309,-2.4308,-2.4291,-2.4289,-2.4313,-2.4313,-2.4313,-2.4313,-2.4313,-2.4313,-2.4355,-2.436,-2.4355,-2.4358,-2.4354,-2.4355,-2.4354,-2.4351,-2.4348,-2.4348,-2.4347,-2.4342,-2.4336,-2.4333,-2.4331,-2.4328,-2.4327,-2.4332,-2.4328,-2.4312,-2.4309,-2.4307,-2.4305,-2.4332,-2.4332,-2.4345,-2.4346,-2.4346]}]]